Theta_e
309 309 310 310 311 311 312 312 313 312 311 311 311 312 312 312 312 312 315 317 317 314 313 317 316 318 319 321 325 328 332 334 336 334 338 338 343 342 346 349 348 348 349 349 348
309 309 309 310 311 311 312 313 313 313 312 311 311 312 312 312 312 317 317 315 314 313 313 317 318 318 320 321 323 328 331 333 335 334 337 341 344 344 348 348 347 345 344 343 341
310 310 310 310 310 311 311 312 313 313 312 311 311 312 312 312 318 319 318 314 313 313 315 317 319 319 320 322 323 326 331 333 333 331 333 339 345 347 348 351 348 347 346 345 344
310 310 310 310 310 311 312 313 313 314 312 311 311 312 312 313 323 324 320 319 317 313 315 317 318 320 321 323 323 325 328 331 331 331 334 337 339 341 342 342 343 343 343 341 340
310 310 310 309 310 311 312 312 313 314 312 311 311 312 312 320 319 321 319 319 319 316 316 317 319 320 322 323 323 324 327 329 330 331 332 333 335 335 334 334 334 333 333 333 333
310 310 310 309 310 311 312 312 313 314 312 310 310 312 315 320 316 320 321 317 319 317 318 318 319 320 321 322 323 323 324 327 328 328 329 331 331 332 332 330 328 326 325 324 324
310 310 310 310 309 312 312 312 313 314 311 310 311 312 320 319 318 321 320 318 317 317 318 318 319 319 321 322 321 323 325 326 328 328 328 328 330 331 329 328 325 323 322 320 320
310 310 310 310 310 311 312 312 314 312 310 310 312 314 322 318 318 320 319 319 318 319 320 319 318 319 322 322 322 323 325 326 327 328 328 328 330 326 327 326 323 322 320 319 317
310 310 310 309 311 312 312 312 311 310 311 311 315 320 323 316 316 320 320 321 319 319 320 319 318 322 322 323 323 323 323 325 327 326 328 328 329 324 324 323 322 321 319 318 316
309 310 310 310 311 312 311 311 311 312 312 312 319 322 321 319 317 319 321 324 323 323 321 320 320 323 324 323 323 323 323 325 327 327 328 329 326 323 322 321 320 319 318 317 315
309 309 309 311 311 310 312 318 322 325 322 323 322 321 322 323 319 320 321 323 323 324 325 323 323 323 323 324 324 325 325 325 329 327 328 327 324 323 321 321 319 318 317 315 314
309 309 309 311 310 313 318 325 326 324 325 325 323 321 321 322 320 320 321 322 322 325 324 325 323 324 324 324 323 323 324 328 327 326 327 326 324 322 321 320 318 317 315 314 314
309 309 309 311 314 318 322 325 322 322 325 324 324 324 322 322 322 321 321 322 323 323 324 325 324 323 323 323 323 323 324 328 328 326 326 325 324 322 319 317 316 315 313 312 312
309 309 309 314 319 323 323 322 321 322 327 326 323 323 323 323 324 323 321 322 323 324 324 324 324 323 323 323 323 322 323 326 327 327 327 326 326 325 321 320 317 315 313 312 311
309 309 309 317 323 322 325 321 321 323 331 325 325 324 323 324 325 324 322 322 324 324 325 325 324 323 323 325 325 324 325 325 327 328 326 328 329 331 323 322 319 315 312 311 310
309 309 309 314 317 324 321 321 323 330 327 328 327 324 325 324 325 324 322 321 322 325 325 325 325 324 323 326 327 327 326 326 326 328 327 328 329 330 326 325 320 314 312 310 310
309 309 308 316 321 321 321 323 330 327 327 328 327 325 325 325 325 325 324 324 324 325 325 325 324 325 325 326 327 327 327 328 328 327 326 327 330 331 327 326 319 315 311 310 310
310 309 309 314 319 320 322 326 328 325 326 327 327 327 326 326 325 325 325 326 325 325 326 327 326 325 325 325 327 327 328 328 328 328 327 327 330 329 321 316 313 311 310 310 309
310 309 316 313 318 318 322 327 327 326 325 326 327 328 328 326 327 326 326 325 326 325 327 329 328 325 324 324 325 328 329 328 329 329 329 330 326 321 317 315 312 311 310 310 309
318 319 318 318 319 319 324 325 326 323 321 323 327 329 329 328 328 328 327 326 326 325 326 328 330 327 324 323 323 325 327 331 329 331 331 330 332 328 319 317 314 311 311 309 308
319 323 319 316 318 322 326 326 325 321 320 321 325 328 329 329 329 328 328 325 323 324 324 326 329 329 326 326 324 325 324 327 329 330 330 333 329 325 322 318 315 312 310 308 308
323 327 318 318 322 323 325 324 319 319 320 321 322 322 325 327 328 328 328 324 317 320 325 326 329 330 328 325 324 324 326 327 329 330 329 329 324 322 320 316 313 310 308 307 307
325 322 319 320 326 325 324 321 320 322 322 322 323 322 323 323 325 326 325 316 317 319 326 327 327 329 329 328 326 325 326 326 327 329 331 330 326 316 314 312 310 309 307 307 306
324 326 322 321 322 325 325 324 323 319 320 320 321 321 323 324 324 323 323 319 318 320 314 319 327 330 331 328 326 328 325 325 326 328 327 324 319 316 313 311 309 308 308 307 307
322 326 323 326 324 324 324 323 323 322 320 319 322 320 320 323 324 324 323 321 319 316 319 322 326 326 326 323 321 323 323 322 324 325 326 324 321 316 314 311 309 308 307 307 306
322 323 321 322 321 322 321 322 320 319 318 320 320 318 319 321 320 321 320 320 321 321 320 321 324 323 323 318 318 319 317 319 320 320 321 321 318 313 310 308 307 307 306 306 305
319 319 320 318 320 321 320 318 317 317 317 316 316 317 318 318 316 316 317 316 318 319 320 321 320 322 322 318 317 318 316 316 315 315 318 318 314 310 309 308 308 307 306 305 305
Wind_Speed
6 7 7 7 8 8 8 9 9 9 9 10 10 10 9 10 11 12 13 12 11 16 8 8 11 15 16 19 18 10 12 13 10 4 17 12 9 11 25 26 28 24 22 20 17
6 7 7 7 8 8 8 8 8 9 9 9 9 8 8 9 11 17 15 16 16 11 11 12 13 14 18 19 18 17 12 18 7 11 19 17 12 19 20 27 25 25 22 19 16
7 7 7 7 8 8 7 7 7 8 8 8 8 7 6 7 11 13 15 16 13 13 13 10 10 13 18 15 19 18 17 10 6 17 17 17 24 26 22 19 26 24 21 18 16
7 7 7 7 7 7 6 7 7 7 7 7 7 6 5 5 3 3 7 8 10 12 14 13 13 15 16 15 16 14 21 13 21 15 22 21 25 27 24 23 21 21 19 19 18
8 7 7 6 6 6 6 6 7 6 6 6 6 6 4 7 10 4 6 8 10 13 16 16 16 15 14 14 15 13 13 11 18 19 21 21 22 19 21 19 20 20 20 18 17
7 7 6 6 6 6 6 6 6 6 5 6 6 5 4 14 2 3 5 6 11 14 15 16 13 14 10 11 10 16 16 14 21 17 18 21 17 17 17 16 17 18 19 18 16
7 7 6 6 6 6 5 5 5 5 5 6 6 5 9 10 4 7 8 6 10 12 12 13 12 9 12 10 15 10 8 6 15 13 19 26 15 14 13 13 15 16 17 17 16
6 6 6 5 5 5 4 4 5 5 5 5 5 4 8 8 8 10 9 7 10 9 9 13 12 14 11 5 9 16 15 15 13 20 17 7 11 10 8 10 12 12 14 15 16
5 5 5 4 4 3 3 4 4 3 3 4 1 5 10 7 12 13 11 9 10 9 7 10 13 16 14 11 14 14 16 21 9 15 12 14 16 10 9 10 10 10 11 12 13
4 4 4 3 3 4 4 3 3 3 4 4 7 7 10 12 13 15 14 9 12 12 10 13 14 13 13 15 15 17 19 19 17 9 11 9 14 12 11 10 9 9 9 10 12
5 3 3 3 4 5 7 3 2 5 13 12 4 6 6 7 11 15 16 14 13 15 14 18 12 15 19 20 20 10 15 15 16 10 12 13 14 13 12 11 10 9 9 9 11
4 3 3 3 6 8 6 6 4 6 10 18 15 14 6 7 13 17 18 17 16 16 17 11 16 18 16 15 16 10 16 9 11 8 5 14 13 11 11 9 9 10 9 9 9
4 3 4 5 7 8 6 5 3 8 8 11 14 16 15 14 15 20 21 22 15 16 18 16 15 20 9 10 12 15 18 14 12 9 7 14 11 12 12 12 11 9 10 9 9
3 3 6 7 4 4 6 4 5 8 6 14 12 11 17 17 16 18 21 22 19 17 19 14 21 6 9 17 16 18 17 13 15 16 11 23 7 17 16 13 11 10 8 8 8
3 4 8 14 5 5 2 4 6 3 6 9 10 8 15 21 14 15 15 21 19 16 13 16 15 15 16 17 15 16 12 15 16 19 20 23 12 18 20 16 13 10 8 8 8
3 5 11 12 6 4 3 6 2 7 4 7 9 11 15 21 10 14 16 15 15 15 15 19 8 14 18 11 7 9 13 15 15 16 17 15 15 14 18 16 15 12 9 7 8
3 5 13 13 3 5 4 5 7 9 5 5 4 13 16 16 13 12 16 17 14 12 15 16 18 14 12 11 9 18 13 9 11 14 16 20 19 8 15 16 17 15 10 7 6
2 4 11 16 5 4 4 9 10 5 4 6 4 7 15 16 16 14 15 16 18 15 15 15 16 21 14 18 12 14 19 13 14 16 18 24 18 12 16 16 16 14 10 7 7
2 2 5 7 8 4 9 9 6 6 6 7 12 12 14 17 10 13 15 16 16 15 15 10 12 7 1 8 12 14 17 20 25 24 16 9 8 8 13 13 14 13 10 8 6
4 3 5 6 10 5 9 12 3 3 7 9 12 3 13 16 15 17 15 15 9 2 3 11 8 10 11 8 14 17 15 13 15 18 22 12 16 10 19 15 12 11 9 7 6
3 7 1 6 7 11 10 4 4 6 8 7 10 8 12 10 10 14 10 9 9 4 8 13 11 10 3 12 16 11 17 17 16 16 12 14 3 7 17 17 14 12 9 7 6
3 2 3 8 10 10 7 6 4 5 3 4 6 8 9 12 13 11 13 10 5 6 6 2 7 14 12 5 6 9 15 16 9 16 19 19 5 8 12 15 14 13 9 7 5
4 5 3 6 5 6 4 0 4 5 4 6 6 3 7 11 6 6 5 8 8 5 9 5 8 12 19 14 13 11 15 11 13 12 19 16 5 10 17 14 13 13 8 6 3
5 3 5 7 4 9 6 3 3 4 1 6 7 7 7 11 8 8 6 4 6 6 6 7 10 11 14 7 5 13 12 10 12 10 15 4 22 16 14 13 14 13 8 6 4
3 5 4 2 4 6 6 6 9 3 6 5 5 5 8 7 11 11 8 4 5 4 3 3 11 18 17 11 13 9 8 7 12 13 9 11 18 15 14 13 14 12 7 6 5
8 5 4 5 4 2 3 6 7 5 8 5 7 8 7 6 7 12 13 11 9 5 5 2 8 8 10 7 7 5 4 5 4 2 2 11 16 14 15 15 12 9 6 5 4
6 4 6 2 1 5 7 5 6 10 5 5 10 10 11 5 9 9 8 9 12 9 6 5 7 6 13 4 4 7 0 4 2 1 1 7 15 17 12 12 10 8 5 4 3
Wind_Direction
299 289 282 277 275 274 273 265 258 251 244 245 251 257 263 263 264 263 253 242 224 239 224 203 214 221 227 237 236 231 266 243 210 180 73 56 56 92 85 71 65 70 90 111 117
302 295 288 279 272 272 273 264 255 249 244 241 246 254 264 272 271 260 247 243 236 226 206 206 208 210 220 225 220 234 233 241 82 58 85 60 12 104 86 83 83 87 95 106 114
303 295 284 274 272 270 272 268 257 246 239 237 240 245 259 279 287 234 227 232 220 210 194 212 226 213 224 214 214 214 245 253 96 72 83 89 52 87 82 71 57 80 88 92 95
299 294 285 274 266 266 268 264 258 246 241 236 236 241 246 252 304 189 196 200 205 202 206 221 225 217 229 214 214 231 234 275 74 93 107 93 83 77 78 75 81 85 88 86 79
297 294 284 272 262 261 259 256 249 238 232 227 231 232 227 237 253 220 227 222 202 190 205 207 213 221 224 218 215 213 216 222 100 103 95 91 87 91 82 86 88 88 86 83 79
296 293 285 275 266 263 254 246 235 230 224 218 223 222 227 250 229 212 209 198 189 191 201 207 217 221 263 243 200 197 248 180 124 124 116 96 92 104 94 95 87 84 81 77 71
296 291 282 271 268 269 255 234 219 216 214 211 214 218 255 236 205 193 164 166 190 191 208 213 223 204 233 223 211 192 147 157 131 147 138 111 87 93 99 96 91 86 82 76 67
296 287 278 270 268 266 241 212 205 207 210 209 207 203 252 210 198 189 186 192 189 207 221 214 212 219 241 211 182 201 188 185 178 171 168 244 115 108 112 110 96 92 85 76 66
299 288 274 264 267 237 207 192 189 196 201 196 204 211 246 228 201 195 194 196 197 198 207 203 201 219 206 209 210 208 203 209 150 209 185 216 130 128 131 119 106 95 87 78 68
298 281 267 251 232 194 171 150 159 187 204 213 245 239 230 217 191 194 193 198 183 184 183 193 211 221 218 217 212 201 226 214 177 157 201 146 121 141 139 131 115 103 90 77 67
304 277 237 218 187 174 156 135 221 225 215 227 211 250 137 159 179 190 192 196 201 203 216 204 217 213 215 221 243 276 217 213 112 128 137 142 148 146 148 142 130 113 96 83 71
308 264 217 193 173 171 194 237 348 339 284 229 237 232 218 202 188 195 188 199 206 215 214 194 232 247 235 227 231 255 255 104 128 158 192 154 147 147 153 135 129 121 105 91 81
312 232 193 174 177 189 203 261 294 330 260 200 218 221 209 202 214 193 195 207 213 229 230 239 234 213 245 233 245 235 236 168 192 171 181 161 163 166 155 147 134 120 110 94 79
305 221 177 162 158 203 242 253 291 305 265 157 195 215 198 199 228 201 203 213 233 239 239 237 247 220 229 238 215 239 217 210 183 184 199 200 219 181 170 160 153 139 115 98 84
294 210 184 172 175 206 185 303 292 276 260 153 130 143 190 205 187 198 204 220 234 229 240 239 230 205 234 229 211 250 210 224 176 216 249 184 256 162 172 175 162 142 126 107 90
277 206 186 192 215 213 277 287 264 236 245 140 146 188 196 212 201 156 200 228 239 260 228 256 245 244 231 240 268 254 250 206 189 223 243 222 211 159 183 180 149 145 129 110 90
258 209 191 176 164 229 270 234 243 247 93 153 182 170 200 202 210 197 199 205 226 223 232 223 241 219 252 257 209 239 223 199 216 226 239 239 209 55 128 153 156 151 141 123 100
233 209 195 185 224 270 240 242 260 30 333 36 277 273 223 218 211 213 222 220 220 245 271 225 216 210 182 233 240 215 223 229 207 224 233 213 203 150 131 128 136 144 143 128 101
92 163 198 217 208 242 257 239 270 32 22 315 282 240 224 236 236 196 226 238 208 210 251 288 245 87 220 241 257 234 231 235 269 285 278 158 92 114 141 148 153 147 142 123 97
107 197 162 214 198 234 251 269 346 25 320 304 288 334 274 214 204 239 220 220 218 327 264 283 285 197 154 223 246 250 266 249 232 259 268 228 181 114 173 163 156 154 138 119 102
146 219 251 169 191 229 250 317 44 63 333 321 320 304 294 309 297 257 253 74 10 165 266 267 254 257 230 221 247 206 234 251 279 279 277 277 73 118 164 159 162 140 135 127 107
258 248 140 167 222 236 276 8 34 308 294 291 285 289 297 325 308 284 290 80 356 321 260 218 277 256 245 35 321 279 290 295 274 262 249 269 89 94 128 131 144 138 137 117 91
275 90 163 178 266 235 111 264 22 327 29 326 305 342 333 305 309 288 353 31 3 326 3 355 237 253 256 199 209 240 238 253 273 291 273 283 164 136 134 142 148 134 131 125 97
285 182 148 223 299 314 351 259 243 54 330 326 307 290 297 276 250 277 290 103 357 7 351 314 271 272 273 19 213 263 254 245 265 267 274 334 125 147 153 155 147 139 137 122 110
334 57 5 26 81 331 302 344 307 358 331 11 220 9 329 294 291 271 283 290 189 135 225 262 259 267 268 289 276 302 295 260 253 262 288 131 137 155 158 151 142 130 128 129 107
349 334 82 55 332 322 6 38 348 2 344 26 336 332 323 327 347 316 331 299 287 127 275 220 271 279 245 261 275 261 282 290 301 358 339 104 106 121 124 119 134 128 125 116 91
32 18 302 10 55 299 38 6 5 341 125 5 327 313 296 48 333 329 304 286 280 282 263 254 277 233 254 184 232 238 308 339 38 286 77 157 125 132 140 135 137 122 124 102 72